Zurück zum Katalog

STARLINK-32396

AktivKommunikationVLEO
NORAD 61633·PAYLOAD·🇺🇸 United States

Gestartet Oct 23, 2024 von Cape Canaveral Space Force Station

Loading…

Nächste Überflüge (nächste 24 Stunden)

TLE

AktuellSource: CelesTrak SupGP

Epoche: Sep 14, 2026, 13:47 UTC

1 61633C 24191N   26257.57479167  .00017681  00000+0  64059-3 0  2570
2 61633  42.9998 171.3850 0001441 265.8310  45.4090 15.27560860    15

Verfolge STARLINK-32396 in Echtzeit mit AllMySat

Download on the App Store